Flag for Philippines Weather past 2 weeks in Mabalacat, Philippines

Now
72 °F

Passing clouds.


Feels Like: 69 °F
Forecast: 75 / 84 °F
Wind: 8 mph from Northwest

Location: Clarkfield Pampanga International Airport

Current Time: Dec 23, 2014 at 6:17:07 AM

Latest Report: Dec 23, 2014 at 6:00 AM


Visibility: N/A

Pressure: 29.95 "Hg

Humidity: 88%

Dew point: 68 °F

Location of MabalacatLocation

Historic Weather in Mabalacat — Graph

°F

Mabalacat temperature yesterday

Maximum temperature yesterday: 84 °F (at 1:00 PM)
Minimum temperature yesterday: 73 °F (at 5:00 AM)
Average temperature yesterday: 78 °F

Past Weeks' High & Low Weather Summary

 TemperatureHumidityPressure
High90 °F (Dec 12, 3:00 PM)100% (Dec 8, 11:00 PM)30.09 "Hg (Dec 8, 11:00 PM)
Low70 °F (Dec 19, 6:00 AM)51% (Dec 18, 12:00 PM)29.71 "Hg (Dec 8, 2:00 PM)
Average79 °F79%29.93 "Hg
* Reported Dec 8 4:00 AM — Dec 23 4:00 AM, Mabalacat, Weather by CustomWeather, © 2014

Note: Actual official high and low records may vary slightly from our data, if they occured in-between our weather recording intervals... More about our weather records

Advertising

Mabalacat weather history for previous 24 hours

 ConditionsComfort  
Time TempWeatherWind HumidityBarometerVisibility
4:00 AM
Dec 23
73 °FPassing clouds.10 mph83%29.92 "HgN/A
3:00 AM73 °FPassing clouds.9 mph83%29.92 "HgN/A
2:00 AM73 °FPassing clouds.9 mph83%29.92 "HgN/A
1:00 AM73 °FPassing clouds.9 mph83%29.95 "HgN/A
12:00 AM75 °FPassing clouds.9 mph83%29.95 "HgN/A
11:00 PM
Dec 22
75 °FPassing clouds.9 mph78%29.95 "HgN/A
10:00 PM75 °FPassing clouds.8 mph78%29.95 "HgN/A
9:00 PM75 °FPassing clouds.8 mph78%29.95 "HgN/A
8:00 PM75 °FPassing clouds.6 mph69%29.95 "HgN/A
7:00 PM79 °FPartly cloudy.6 mph65%29.92 "HgN/A
6:00 PM79 °FPartly cloudy.12 mph65%29.89 "HgN/A
5:00 PM81 °FBroken clouds.8 mph62%29.89 "HgN/A
4:00 PM81 °FBroken clouds.12 mph62%29.86 "HgN/A
3:00 PM82 °FBroken clouds.10 mph58%29.86 "HgN/A
2:00 PM84 °FBroken clouds.13 mph51%29.86 "HgN/A
1:00 PM84 °FBroken clouds.13 mph51%29.89 "HgN/A
12:00 PM82 °FPartly sunny.10 mph55%29.92 "HgN/A
11:00 AM82 °FBroken clouds.8 mph55%29.95 "HgN/A
10:00 AM81 °FScattered clouds.10 mph62%29.95 "HgN/A
9:00 AM81 °FPartly sunny.9 mph62%29.95 "HgN/A
8:00 AM77 °FPartly sunny.6 mph74%29.95 "HgN/A
7:00 AM75 °FBroken clouds.8 mph83%29.92 "HgN/A
6:00 AM75 °FPassing clouds.7 mph94%29.89 "HgN/A
Weather by CustomWeather, © 2014

See weather overviewHow to use our weather pages